Hourly Data Report for May 03, 2021

TOBERMORY RCS
ONTARIO
Current Station Operator: ECCC - MSC

45°14'00.000" N
81°38'00.000" W
213.50 m
6128330
71767
TTR

Download Data

Hourly Data (May 2021)
Hourly Data Report for May 3, 2021
TIME
LST
Temp Definition
°C
Dew Point Definition
°C
Rel Hum Definition
%
Precip. Amount Definition
mm

Wind Dir Definition
10's deg

Wind Spd Definition
km/h
Visibility Definition
km
Stn Press Definition
kPa
Hmdx Definition


Wind Chill Definition


Weather Definition


00:00 9.6 8.5 93 0.8 12 21   98.24     LegendNANA
01:00 9.8 8.7 93 2.0 12 15   98.26     LegendNANA
02:00 10.0 9.0 94 1.0 12 16   98.23     LegendNANA
03:00 9.6 8.7 94 1.4 11 15   98.15     LegendNANA
04:00 9.6 8.9 95 0.3 12 16   98.15     LegendNANA
05:00 10.1 9.1 94 0.8 12 27   98.13     LegendNANA
06:00 9.0 8.2 95 0.1 11 18   98.20     LegendNANA
07:00 9.0 8.1 94 0.3 10 20   98.19     LegendNANA
08:00 9.4 8.3 93 0.1 10 20   98.20     LegendNANA
09:00 8.7 8.1 96 0.2 8 12   98.17     LegendNANA
10:00 9.5 8.5 94 0.3 10 24   98.11     LegendNANA
11:00 8.8 8.0 95 0.0 11 27   98.09     LegendNANA
12:00 8.4 7.6 94 0.0 11 18   98.13     LegendNANA
13:00 7.9 7.2 95 2.4 10 19   98.10     LegendNANA
14:00 7.7 7.0 95 0.1 9 19   98.10     LegendNANA
15:00 7.7 7.0 95 0.8 9 16   98.07     LegendNANA
16:00 7.3 6.7 96 0.6 9 15   98.05     LegendNANA
17:00 7.3 6.7 96 0.1 9 15   98.04     LegendNANA
18:00 7.2 6.6 96 0.0 10 16   98.05     LegendNANA
19:00 7.0 6.3 96 0.0 10 20   98.02     LegendNANA
20:00 6.9 6.3 96 0.2 10 20   98.04     LegendNANA
21:00 6.9 6.4 96 0.0 8 13   98.10     LegendNANA
22:00 6.8 6.3 97 0.5 9 14   98.06     LegendNANA
23:00 7.0 6.3 96 0.2 9 12   98.06     LegendNANA

Notes on Data Quality.

Legend

  • E = Estimated
  • M = Missing
  • NA = Not Available*
  • [empty] = Indicates an unobserved value
Date modified: